Overview Statistics Trail Chart Weather Telemetry Raw packets
 

This is the latest recevied weather packets stored in our database for station/object KE5QKR. If no packets are shown the sender has not sent any weather packets the latest 10 day(s).

<< 79 80 81 82 83 84 85 >>
Time Temp. Humidity Pressure Rain* Wind** Luminosity Snow
1777396948 30° C 70% 1016.2 hPa 0 mm - 768 W/m² -
1777396644 30° C 68% 1016.4 hPa 0 mm - 771 W/m² -
1777396341 30° C 69% 1016.6 hPa 0 mm - 757 W/m² -
1777396038 30° C 69% 1016.7 hPa 0 mm - 761 W/m² -
1777395733 30° C 68% 1016.6 hPa 0 mm - 762 W/m² -
1777395429 29.44° C 69% 1016.8 hPa 0 mm - 749 W/m² -
1777395127 29.44° C 69% 1016.9 hPa 0 mm - 746 W/m² -
1777394824 29.44° C 70% 1016.8 hPa 0 mm - 742 W/m² -
1777394520 30° C 71% 1017.3 hPa 0 mm - 741 W/m² -
1777394216 30° C 70% 1017.1 hPa 0 mm - 737 W/m² -
1777393912 29.44° C 71% 1017.2 hPa 0 mm - 762 W/m² -
1777393611 28.89° C 71% 1017.2 hPa 0 mm - 548 W/m² -
1777393306 29.44° C 69% 1017.3 hPa 0 mm - 660 W/m² -
1777393004 29.44° C 71% 1017.3 hPa 0 mm - 517 W/m² -
1777392699 28.89° C 72% 1017.4 hPa 0 mm - 715 W/m² -
1777392396 28.33° C 73% 1017.6 hPa 0 mm - 394 W/m² -
1777392091 28.33° C 75% 1017.6 hPa 0 mm - 320 W/m² -
1777391786 28.89° C 73% 1017.4 hPa 0 mm - 394 W/m² -
1777391482 28.89° C 71% 1017 hPa 0 mm - 376 W/m² -
1777391179 28.89° C 72% 1016.8 hPa 0 mm - 636 W/m² -
1777390875 28.89° C 72% 1016.9 hPa 0 mm - 654 W/m² -
1777390572 28.89° C 73% 1016.8 hPa 0 mm - 640 W/m² -
1777390269 28.89° C 72% 1016.4 hPa 0 mm - 635 W/m² -
1777389964 28.33° C 76% 1016.5 hPa 0 mm - 622 W/m² -
1777389661 27.78° C 75% 1016.7 hPa 0 mm - 598 W/m² -

* Rain latest hour (hover to see other rain measurements)
** Current wind speed in m/s (hover to see current wind gust speed)